DAL2523 KPHX-KSAN

Flight info

Callsign DAL2523
Flight time 0h 51m
Altitude 34000
Route FYRBD1 MOHAK J2 HOGGZ LUCKI1
Aircraft A21N/M-SDE2E3FGHIRWXY/LB1

Departure

Time 2026-04-22 03:39
Airport Phoenix Sky Harbor International Airport (KPHX)

Arrival

Time 2026-04-22 04:30
Airport San Diego International Airport (KSAN)
Time Latitude Longitude Altitude Speed Heading
2026-04-22 03:10 33.43683 -111.99984 1139 ft 0 kts 90°
2026-04-22 03:24 33.43683 -111.99999 1139 ft 2 kts 86°
2026-04-22 03:24 33.43681 -112.00015 1136 ft 1 kts 75°
2026-04-22 03:24 33.43676 -112.00028 1137 ft 2 kts 39°
2026-04-22 03:25 33.43665 -112.00034 1140 ft 2 kts
2026-04-22 03:25 33.43664 -112.00034 1139 ft 1 kts
2026-04-22 03:25 33.43667 -112.00034 1139 ft 0 kts
2026-04-22 03:25 33.43677 -112.00033 1135 ft 3 kts
2026-04-22 03:26 33.43705 -112.00029 1137 ft 5 kts
2026-04-22 03:26 33.43752 -112.00024 1136 ft 8 kts
2026-04-22 03:26 33.43795 -112.00018 1134 ft 0 kts
2026-04-22 03:30 33.43796 -112.00018 1134 ft 1 kts
2026-04-22 03:30 33.43797 -112.00018 1134 ft 5 kts
2026-04-22 03:30 33.43800 -112.00018 1134 ft 9 kts
2026-04-22 03:30 33.43805 -112.00017 1134 ft 13 kts
2026-04-22 03:31 33.43811 -112.00016 1135 ft 16 kts
2026-04-22 03:31 33.43812 -112.00016 1135 ft 16 kts
2026-04-22 03:32 33.43815 -112.00016 1135 ft 17 kts
2026-04-22 03:33 33.43822 -112.00016 1137 ft 17 kts 358°
2026-04-22 03:33 33.43865 -112.00033 1137 ft 23 kts 330°
2026-04-22 03:33 33.43902 -112.00097 1137 ft 16 kts 282°
2026-04-22 03:33 33.43904 -112.00163 1134 ft 16 kts 271°
2026-04-22 03:34 33.43904 -112.00234 1134 ft 17 kts 269°
2026-04-22 03:34 33.43900 -112.00314 1134 ft 10 kts 265°
2026-04-22 03:34 33.43828 -112.00381 1135 ft 19 kts 183°
2026-04-22 03:34 33.43702 -112.00380 1138 ft 29 kts 177°
2026-04-22 03:35 33.43487 -112.00386 1135 ft 32 kts 182°
2026-04-22 03:35 33.43341 -112.00385 1137 ft 15 kts 179°
2026-04-22 03:35 33.43233 -112.00372 1137 ft 16 kts 162°
2026-04-22 03:35 33.43209 -112.00294 1136 ft 10 kts 86°
2026-04-22 03:36 33.43213 -112.00174 1139 ft 21 kts 88°
2026-04-22 03:36 33.43214 -111.99951 1138 ft 34 kts 90°
2026-04-22 03:36 33.43211 -111.99702 1138 ft 16 kts 93°
2026-04-22 03:36 33.43214 -111.99576 1138 ft 21 kts 87°
2026-04-22 03:37 33.43216 -111.99501 1139 ft 2 kts 88°
2026-04-22 03:37 33.43211 -111.99394 1138 ft 20 kts 105°
2026-04-22 03:37 33.43203 -111.99372 1137 ft 3 kts 119°
2026-04-22 03:37 33.43173 -111.99352 1140 ft 7 kts 168°
2026-04-22 03:38 33.43112 -111.99380 1141 ft 9 kts 245°
2026-04-22 03:38 33.43104 -111.99494 1138 ft 35 kts 269°
2026-04-22 03:38 33.43105 -112.00129 1138 ft 119 kts 270°
2026-04-22 03:38 33.43108 -112.01401 1290 ft 171 kts 269°
2026-04-22 03:39 33.43119 -112.02812 2060 ft 166 kts 266°
2026-04-22 03:39 33.43010 -112.04171 2937 ft 162 kts 259°
2026-04-22 03:39 33.42800 -112.05558 3519 ft 178 kts 258°
2026-04-22 03:39 33.42515 -112.07089 3864 ft 199 kts 257°
2026-04-22 03:40 33.42187 -112.08790 4160 ft 221 kts 256°
2026-04-22 03:40 33.41771 -112.10669 4440 ft 243 kts 253°
2026-04-22 03:40 33.41255 -112.12636 4900 ft 252 kts 251°
2026-04-22 03:40 33.40576 -112.14607 5399 ft 258 kts 240°
2026-04-22 03:41 33.39536 -112.16349 6028 ft 259 kts 229°
2026-04-22 03:41 33.38309 -112.17950 6593 ft 262 kts 225°
2026-04-22 03:41 33.37035 -112.19494 7164 ft 265 kts 224°
2026-04-22 03:41 33.35718 -112.21051 7764 ft 267 kts 223°
2026-04-22 03:42 33.34370 -112.22630 8402 ft 268 kts 223°
2026-04-22 03:42 33.33049 -112.24171 9066 ft 269 kts 223°
2026-04-22 03:42 33.31706 -112.25734 9727 ft 270 kts 222°
2026-04-22 03:42 33.30347 -112.27314 10259 ft 277 kts 222°
2026-04-22 03:43 33.28928 -112.28960 10520 ft 291 kts 221°
2026-04-22 03:43 33.27443 -112.30677 10800 ft 301 kts 223°
2026-04-22 03:43 33.25924 -112.32441 11191 ft 310 kts 223°
2026-04-22 03:43 33.24353 -112.34263 12010 ft 317 kts 223°
2026-04-22 03:44 33.22765 -112.36107 13077 ft 320 kts 224°
2026-04-22 03:44 33.21159 -112.37968 14104 ft 324 kts 224°
2026-04-22 03:44 33.19534 -112.39851 15008 ft 328 kts 224°
2026-04-22 03:44 33.17887 -112.41757 15920 ft 332 kts 224°
2026-04-22 03:45 33.16220 -112.43685 16820 ft 335 kts 225°
2026-04-22 03:45 33.14535 -112.45634 17725 ft 340 kts 225°
2026-04-22 03:45 33.12822 -112.47613 18530 ft 345 kts 225°
2026-04-22 03:45 33.11091 -112.49613 19294 ft 348 kts 225°
2026-04-22 03:46 33.09342 -112.51631 20092 ft 352 kts 225°
2026-04-22 03:46 33.07576 -112.53668 20881 ft 355 kts 225°
2026-04-22 03:46 33.05792 -112.55725 21661 ft 358 kts 226°
2026-04-22 03:46 33.03993 -112.57796 22463 ft 361 kts 226°
2026-04-22 03:47 33.02176 -112.59888 23221 ft 365 kts 226°
2026-04-22 03:47 33.00340 -112.62000 23888 ft 369 kts 226°
2026-04-22 03:47 32.98519 -112.64164 24524 ft 371 kts 229°
2026-04-22 03:47 32.96931 -112.66586 25154 ft 372 kts 238°
2026-04-22 03:48 32.95739 -112.69324 25764 ft 374 kts 248°
2026-04-22 03:48 32.94983 -112.72294 26349 ft 377 kts 257°
2026-04-22 03:48 32.94517 -112.75375 26898 ft 379 kts 259°
2026-04-22 03:48 32.94118 -112.78445 27413 ft 382 kts 260°
2026-04-22 03:49 32.93714 -112.81578 27935 ft 383 kts 259°
2026-04-22 03:49 32.93302 -112.84720 28407 ft 386 kts 259°
2026-04-22 03:49 32.92881 -112.87888 28876 ft 388 kts 259°
2026-04-22 03:49 32.92454 -112.91070 29338 ft 391 kts 259°
2026-04-22 03:50 32.92021 -112.94273 29797 ft 393 kts 259°
2026-04-22 03:50 32.91583 -112.97496 30207 ft 396 kts 259°
2026-04-22 03:50 32.91141 -113.00742 30570 ft 398 kts 259°
2026-04-22 03:50 32.90697 -113.03993 31063 ft 398 kts 259°
2026-04-22 03:51 32.90253 -113.07242 31583 ft 398 kts 259°
2026-04-22 03:51 32.89807 -113.10488 31868 ft 397 kts 259°
2026-04-22 03:51 32.88917 -113.16953 31906 ft 396 kts 259°
2026-04-22 03:52 32.88023 -113.23420 31904 ft 396 kts 259°
2026-04-22 03:52 32.87127 -113.29886 31908 ft 396 kts 259°
2026-04-22 03:53 32.86226 -113.36349 31907 ft 396 kts 259°
2026-04-22 03:53 32.85323 -113.42816 31912 ft 396 kts 259°
2026-04-22 03:54 32.84415 -113.49283 31911 ft 396 kts 259°
2026-04-22 03:54 32.83506 -113.55738 31917 ft 396 kts 259°
2026-04-22 03:55 32.82593 -113.62194 31920 ft 396 kts 259°
2026-04-22 03:55 32.81676 -113.68656 31919 ft 396 kts 259°
2026-04-22 03:56 32.80756 -113.75117 31946 ft 397 kts 259°
2026-04-22 03:56 32.79836 -113.81557 31932 ft 394 kts 258°
2026-04-22 03:57 32.78915 -113.87981 31937 ft 394 kts 258°
2026-04-22 03:57 32.77990 -113.94403 31934 ft 394 kts 259°
2026-04-22 03:58 32.77538 -114.00906 31943 ft 397 kts 266°
2026-04-22 03:58 32.77510 -114.07467 31944 ft 398 kts 269°
2026-04-22 03:59 32.77759 -114.13976 31955 ft 396 kts 270°
2026-04-22 03:59 32.78032 -114.20512 31954 ft 396 kts 270°
2026-04-22 04:00 32.78294 -114.27055 31959 ft 396 kts 270°
2026-04-22 04:00 32.78550 -114.33591 31961 ft 395 kts 269°
2026-04-22 04:01 32.78924 -114.40105 31943 ft 398 kts 276°
2026-04-22 04:01 32.80685 -114.46413 31953 ft 406 kts 287°
2026-04-22 04:02 32.81683 -114.49547 31809 ft 404 kts 284°
2026-04-22 04:02 32.82597 -114.52709 31588 ft 405 kts 283°
2026-04-22 04:02 32.83484 -114.55872 31335 ft 402 kts 283°
2026-04-22 04:02 32.84359 -114.59034 31075 ft 404 kts 283°
2026-04-22 04:03 32.85235 -114.62220 30834 ft 406 kts 283°
2026-04-22 04:03 32.86109 -114.65402 30596 ft 399 kts 283°
2026-04-22 04:03 32.86959 -114.68534 30358 ft 399 kts 282°
2026-04-22 04:03 32.87601 -114.71770 30124 ft 404 kts 275°
2026-04-22 04:04 32.87851 -114.75084 29877 ft 400 kts 268°
2026-04-22 04:04 32.87834 -114.78381 29589 ft 397 kts 266°
2026-04-22 04:04 32.87789 -114.80551 29407 ft 396 kts 266°
2026-04-22 04:04 32.87708 -114.83835 29148 ft 398 kts 265°
2026-04-22 04:05 32.87628 -114.87109 28876 ft 395 kts 266°
2026-04-22 04:05 32.87550 -114.90370 28608 ft 393 kts 266°
2026-04-22 04:05 32.87475 -114.93612 28210 ft 391 kts 266°
2026-04-22 04:05 32.87400 -114.96831 27706 ft 389 kts 266°
2026-04-22 04:06 32.87324 -115.00045 27449 ft 388 kts 266°
2026-04-22 04:06 32.87249 -115.03246 27193 ft 387 kts 266°
2026-04-22 04:06 32.87173 -115.06440 26968 ft 385 kts 266°
2026-04-22 04:06 32.87098 -115.09613 26717 ft 383 kts 266°
2026-04-22 04:07 32.87022 -115.12771 26471 ft 382 kts 266°
2026-04-22 04:07 32.86945 -115.15919 26226 ft 380 kts 266°
2026-04-22 04:07 32.86867 -115.19064 25984 ft 379 kts 266°
2026-04-22 04:07 32.86789 -115.22194 25744 ft 378 kts 266°
2026-04-22 04:08 32.86711 -115.25317 25495 ft 377 kts 266°
2026-04-22 04:08 32.86632 -115.28433 25280 ft 376 kts 266°
2026-04-22 04:08 32.86552 -115.31539 25037 ft 375 kts 266°
2026-04-22 04:08 32.86372 -115.34624 24817 ft 372 kts 261°
2026-04-22 04:09 32.86000 -115.37664 24596 ft 370 kts 259°
2026-04-22 04:09 32.85582 -115.40677 24369 ft 369 kts 259°
2026-04-22 04:09 32.85157 -115.43682 24145 ft 368 kts 259°
2026-04-22 04:09 32.84733 -115.46674 23913 ft 366 kts 259°
2026-04-22 04:10 32.84289 -115.49653 23698 ft 365 kts 258°
2026-04-22 04:10 32.83812 -115.52616 23462 ft 364 kts 258°
2026-04-22 04:10 32.83329 -115.55568 23189 ft 363 kts 258°
2026-04-22 04:10 32.82847 -115.58506 22923 ft 362 kts 258°
2026-04-22 04:11 32.82367 -115.61435 22595 ft 360 kts 258°
2026-04-22 04:11 32.81893 -115.64324 21665 ft 352 kts 258°
2026-04-22 04:11 32.81425 -115.67175 20360 ft 350 kts 258°
2026-04-22 04:11 32.80960 -115.70004 19584 ft 349 kts 258°
2026-04-22 04:12 32.80496 -115.72821 19077 ft 345 kts 258°
2026-04-22 04:12 32.80037 -115.75608 18847 ft 343 kts 258°
2026-04-22 04:12 32.79575 -115.78411 18970 ft 346 kts 258°
2026-04-22 04:12 32.79113 -115.81202 19019 ft 344 kts 258°
2026-04-22 04:13 32.78666 -115.83990 19027 ft 343 kts 259°
2026-04-22 04:13 32.78367 -115.86789 18858 ft 340 kts 263°
2026-04-22 04:13 32.78146 -115.89599 18487 ft 343 kts 263°
2026-04-22 04:13 32.77940 -115.92426 18059 ft 343 kts 263°
2026-04-22 04:14 32.77734 -115.95241 17651 ft 342 kts 263°
2026-04-22 04:14 32.77528 -115.98026 17295 ft 345 kts 263°
2026-04-22 04:14 32.77314 -116.00905 16913 ft 346 kts 263°
2026-04-22 04:14 32.77101 -116.03748 16538 ft 345 kts 263°
2026-04-22 04:15 32.76888 -116.06581 16159 ft 344 kts 263°
2026-04-22 04:15 32.76677 -116.09364 15785 ft 343 kts 263°
2026-04-22 04:15 32.76461 -116.12215 15399 ft 341 kts 263°
2026-04-22 04:15 32.76247 -116.15016 15037 ft 340 kts 263°
2026-04-22 04:16 32.76037 -116.17773 14658 ft 339 kts 263°
2026-04-22 04:16 32.75619 -116.23228 14055 ft 319 kts 263°
2026-04-22 04:16 32.75419 -116.25833 13494 ft 314 kts 263°
2026-04-22 04:17 32.75222 -116.28373 13196 ft 302 kts 263°
2026-04-22 04:17 32.75035 -116.30806 12792 ft 293 kts 263°
2026-04-22 04:17 32.74849 -116.33208 12154 ft 292 kts 263°
2026-04-22 04:17 32.74662 -116.35604 11551 ft 291 kts 263°
2026-04-22 04:18 32.74479 -116.37962 11235 ft 281 kts 263°
2026-04-22 04:18 32.74304 -116.40220 11001 ft 268 kts 263°
2026-04-22 04:18 32.74136 -116.42379 10468 ft 260 kts 262°
2026-04-22 04:18 32.73967 -116.44522 10177 ft 262 kts 262°
2026-04-22 04:19 32.73798 -116.46676 10127 ft 262 kts 262°
2026-04-22 04:19 32.73627 -116.48829 10114 ft 263 kts 262°
2026-04-22 04:19 32.73436 -116.50989 10136 ft 263 kts 262°
2026-04-22 04:19 32.73232 -116.53144 10087 ft 261 kts 261°
2026-04-22 04:20 32.73028 -116.55274 9628 ft 258 kts 261°
2026-04-22 04:20 32.72824 -116.57391 9061 ft 257 kts 262°
2026-04-22 04:20 32.72619 -116.59509 8508 ft 259 kts 262°
2026-04-22 04:20 32.72413 -116.61624 8188 ft 256 kts 262°
2026-04-22 04:21 32.72209 -116.63726 8139 ft 256 kts 262°
2026-04-22 04:21 32.72014 -116.65829 8048 ft 256 kts 263°
2026-04-22 04:21 32.71846 -116.67922 7549 ft 254 kts 263°
2026-04-22 04:21 32.71681 -116.70012 7008 ft 255 kts 264°
2026-04-22 04:22 32.71514 -116.72100 6485 ft 253 kts 263°
2026-04-22 04:22 32.71348 -116.74173 6121 ft 251 kts 264°
2026-04-22 04:22 32.71186 -116.76233 5992 ft 250 kts 264°
2026-04-22 04:22 32.71022 -116.78298 5990 ft 252 kts 264°
2026-04-22 04:23 32.70844 -116.80337 5994 ft 238 kts 262°
2026-04-22 04:23 32.70549 -116.82170 5950 ft 217 kts 256°
2026-04-22 04:23 32.70120 -116.83822 5672 ft 210 kts 251°
2026-04-22 04:23 32.69637 -116.85450 5256 ft 209 kts 252°
2026-04-22 04:24 32.69247 -116.87103 5014 ft 208 kts 258°
2026-04-22 04:24 32.69019 -116.88804 4985 ft 209 kts 264°
2026-04-22 04:24 32.68971 -116.90537 4972 ft 210 kts 270°
2026-04-22 04:24 32.69040 -116.92262 4539 ft 208 kts 272°
2026-04-22 04:25 32.69139 -116.93978 3866 ft 209 kts 274°
2026-04-22 04:25 32.69243 -116.95702 3291 ft 209 kts 274°
2026-04-22 04:25 32.69344 -116.97420 2825 ft 209 kts 274°
2026-04-22 04:25 32.69443 -116.99143 2691 ft 209 kts 274°
2026-04-22 04:26 32.69540 -117.00862 2681 ft 208 kts 274°
2026-04-22 04:26 32.69643 -117.02574 2691 ft 208 kts 275°
2026-04-22 04:26 32.69835 -117.04274 2652 ft 206 kts 283°
2026-04-22 04:26 32.70200 -117.05866 2307 ft 192 kts 286°
2026-04-22 04:27 32.70555 -117.07308 2049 ft 173 kts 287°
2026-04-22 04:27 32.70864 -117.08639 1722 ft 163 kts 285°
2026-04-22 04:27 32.71156 -117.09882 1458 ft 148 kts 286°
2026-04-22 04:27 32.71437 -117.11011 1167 ft 137 kts 285°
2026-04-22 04:28 32.71674 -117.12056 987 ft 125 kts 285°
2026-04-22 04:28 32.71912 -117.13008 803 ft 117 kts 287°
2026-04-22 04:28 32.72141 -117.13926 675 ft 116 kts 287°
2026-04-22 04:28 32.72360 -117.14855 582 ft 117 kts 285°
2026-04-22 04:29 32.72580 -117.15782 410 ft 115 kts 287°
2026-04-22 04:29 32.72805 -117.16695 289 ft 116 kts 288°
2026-04-22 04:29 32.73032 -117.17614 147 ft 114 kts 286°
2026-04-22 04:29 32.73239 -117.18512 33 ft 107 kts 289°
2026-04-22 04:30 32.73409 -117.19169 28 ft 46 kts 284°
2026-04-22 04:30 32.73441 -117.19433 30 ft 29 kts 255°
2026-04-22 04:30 32.73413 -117.19482 30 ft 0 kts 183°
2026-04-22 04:31 32.73411 -117.19483 30 ft 1 kts 198°
2026-04-22 04:31 32.73398 -117.19505 30 ft 8 kts 264°
2026-04-22 04:31 32.73408 -117.19594 30 ft 15 kts 282°
2026-04-22 04:32 32.73401 -117.19691 28 ft 8 kts 216°
2026-04-22 04:32 32.73339 -117.19718 27 ft 14 kts 201°
2026-04-22 04:32 32.73288 -117.19757 27 ft 1 kts 259°
2026-04-22 04:32 32.73294 -117.19772 27 ft 5 kts 303°
2026-04-22 04:33 32.73301 -117.19784 27 ft 0 kts 302°